Nowra Airport

Jump to: basic info | weather | frequencies | runways | comments

Related pages: nearby airports | nearby navaids | notams | map

Basic information (top)

Codes: NOA YSNW
Location: lon -34.948898, lat 150.537003, elev 400 ft / 122 m msl
Status: medium_airport

Weather (top)

Current conditions (rec'd 2014/10/23 19:00Z):

YSNW 231900Z 33008KT CAVOK 18/15 Q1017

Airport forecast for Sydney Kingsford Smith International Airport 68nm (126km) NNE (rec'd 2014/10/23 12:34Z):

TAF YSSY 231111Z 2312/2418 14005KT 9999 FEW010 
     FM231400 36005KT 9999 SCT015 
     FM240000 04018KT CAVOK 
     FM241200 33008KT 9999 FEW010 PROB30 
      TEMPO 2404/2410 VRB25G35KT 3000 TSRA SCT015 FEW035CB

Frequencies (top)

Verify before use: may be inaccurate or out of date.

APP: 123.5 MHz (APP)
ATIS: 28.04 MHz (ATIS)
CLD: 128.35 MHz (CLNC DEL)
CTAF: 118.85 MHz (CTAF)
FSS: 121.2 MHz (MELBOURNE CNTR)
GND: 135.85 MHz (GND)
TWR: 118.85 MHz (TWR)

Runways (top)

03/21: 6,713 x 148 ft (2,046 x 45 m) — paved — lighted

08/26: 6,870 x 148 ft (2,094 x 45 m) — paved — lighted — threshold 26 displaced 298 ft (91 m)

Latest comments (top)

No comments yet for Nowra Airport

More... (top)

See also NOTAMs and nearby airports and navaids, or visit the Nowra Airport page at the main OurAirports website..